Regional Weather Roundup
Issued by NWS Austin/San Antonio, TX

Home | Current Version | Previous Version | Text Only | Print | Product List | Glossary On
Versions: 1 2 3 4 5 6 7 8 9 10 11 12 13 14 15 16 17 18 19 20 21 22 23 24 25 26 27 28 29 30 31 32 33 34 35 36 37 38 39 40 41 42 43 44 45 46 47 48 49 50
250
ASUS44 KEWX 250502
RWREWX
SOUTH TEXAS REGIONAL WEATHER ROUNDUP
NATIONAL WEATHER SERVICE AUSTIN/SAN ANTONIO TX
1200 AM CDT FRI MAY 25 2018

NOTE: "FAIR" INDICATED FEW OR NO CLOUDS BELOW 12,000 FEET WITH NO
SIGNIFICANT WEATHER AND/OR OBSTRUCTIONS TO VISIBILITY.

* - THESE STATIONS ARE NOT NWS OR FAA STATIONS...AND ARE NOT SUBJECT
    TO NWS AND FAA QUALITY CONTROL.

TXZ171-172-183>190-250600-
TEXAS HILL COUNTRY AND EDWARDS PLATEAU

CITY           SKY/WX    TMP DP  RH WIND       PRES   REMARKS
JUNCTION       CLEAR     77  65  66 S5        30.06S
*LLANO         CLEAR     79  66  65 CALM      30.06R
BURNET         CLEAR     79  68  69 S5        30.06R
*HORSESHOE BAY CLEAR     78  68  71 S7        30.03S
*KERRVILLE     PTCLDY    73  64  73 CALM      30.06R
*FREDERICKSBRG CLEAR     76  64  65 S3        30.05F
*ROCKSPRINGS   PTCLDY    72  61  68 SE3       30.13S
*BOERNE STAGE  PTCLDY    77  68  73 S7        30.06S
*CASTROVILLE   PTCLDY    78  69  71 SE5       30.03F
HONDO          PTCLDY    81  72  74 SE10      30.02S
*UVALDE        PTCLDY    77  66  70 E6        30.02R
DEL RIO        CLOUDY    82  67  60 E8        29.98R
LAUGHLIN AFB   PTCLDY    81  66  61 E8        29.99R
CARRIZO SPRGS  CLOUDY    82  70  65 SE10      29.97S
*EAGLE PASS    PTCLDY    82  64  54 E9        30.00R
*FAITH RANCH   CLEAR     86  68  54 SE10G18   29.99S
$$

TXZ173-191>194-202-209-217>225-228-250600-
CENTRAL AND SOUTH CENTRAL TEXAS

CITY           SKY/WX    TMP DP  RH WIND       PRES   REMARKS
GEORGETOWN     PTCLDY    78  71  79 SE6       30.05R
AUSTIN/BERGSTM PTCLDY    78  72  81 SE7       30.02R
AUSTIN/MABRY   PTCLDY    79  70  74 SE6       30.03R
*AUSTIN/EXEC   PTCLDY    75  73  94 MISG      30.03S
*LAGO VISTA    PTCLDY    79  69  73 SE6       30.05R
SAN MARCOS     NOT AVBL
NEW BRAUNFELS  PTCLDY    74  70  87 S5        30.01S
RANDOLPH AFB   PTCLDY    75  71  87 SE8       30.02S
PT SAN ANTONIO PTCLDY    79  71  74 S9        30.00S
SAN ANTONIO    MOCLDY    80  69  69 S9        30.02F
STINSON FIELD  MOCLDY    80  72  76 SE6       30.00S
*LA GRANGE     CLEAR     76  74  94 SE5       30.01S
*GIDDINGS      CLEAR     73  69  87 SE5       30.04S
*GONZALES      CLEAR     78  73  83 SE7       30.02S
$$

TXZ163>164-176>182-195>201-210>213-226-227-235-250600-
SOUTHEAST TEXAS

CITY           SKY/WX    TMP DP  RH WIND       PRES   REMARKS
COLLEGE STN    CLEAR     76  72  87 S6        30.03S
*BRYAN         CLEAR     76  73  90 S7        30.05S
*CALDWELL      PTCLDY    75  71  87 SE7       30.04R
*CROCKETT      CLEAR     73  70  88 CALM      30.07R
*BRENHAM       CLEAR     76  71  85 S3        30.04S
HUNTSVILLE     CLEAR     78  71  79 VRB3      30.04S
CONROE         CLEAR     72  72 100 CALM      30.04S
HOUSTON BUSH   FAIR      74  71  91 CALM      30.02F
HOUSTON HOBBY  FAIR      75  73  93 CALM      30.02S
*HOUSTON SW AP FAIR      70  70  98 CALM      30.03F
PEARLAND       FAIR      74  72  93 CALM      30.03F
HOUSTON HOOKS  FAIR      73  71  93 CALM      30.03S
ELLINGTON FLD  PTCLDY    77  72  83 CALM      30.04R
SUGAR LAND     FAIR      76  72  87 CALM      30.03S
*HOUSTON EXEC    N/A     75  72  88 SE3       30.05R
*CLEVELAND MUN FAIR      71  69  93 CALM      30.05S FOG
*WHARTON       CLOUDY    73  71  93 CALM      30.04R
*COLUMBUS      FAIR      73  72  94 E3        30.05S
*EAGLE LAKE    CLEAR     74  73  97 SE3       30.03S
$$

TXZ214>216-236>238-250600-
THE UPPER TEXAS COAST

CITY           SKY/WX    TMP DP  RH WIND       PRES   REMARKS
*ORANGE        FAIR      73  73 100 CALM      30.05S FOG
PORT ARTHUR    FAIR      74  71  91 CALM      30.03R
GALVESTON      FAIR      79  75  87 SE7       30.03S
ANGLETON       FAIR      74  72  93 CALM      30.02S
*BAY CITY      CLOUDY    75  74  97 E3        30.02S
PALACIOS       CLOUDY    78  77  96 CALM      30.02R
$$

TXZ229>234-239>247-250600-
TEXAS COASTAL BEND AND RIO GRANDE PLAINS

CITY           SKY/WX    TMP DP  RH WIND       PRES   REMARKS
VICTORIA       CLOUDY    75  72  90 SE7       30.02S
*BEEVILLE      CLOUDY    75  72  92 SE5       30.02S
ROCKPORT       CLOUDY    79  74  84 S7        30.00S
*PORT ARANSAS  NOT AVBL
*PORT LAVACA   CLOUDY    76  73  90 S5        30.02S
*INGLESIDE     CLOUDY    79  75  86 S6        30.00F
CORPUS CHRISTI CLOUDY    76  75  97 S5        30.01S
CORPUS NAS     PTCLDY    80  76  87 SE10      30.00F
*ROBSTOWN      CLOUDY    76  74  93 SE5       30.01F
ALICE          CLOUDY    75  72  90 SE5       30.00F
KINGSVILLE NAS CLOUDY    77  74  90 E3        30.00F
COTULLA        CLOUDY    81  71  71 SE13      29.99S
LAREDO         CLOUDY    83  70  64 SE13      29.99S
$$

TXZ248>255-250600-
DEEP SOUTH TEXAS

CITY           SKY/WX    TMP DP  RH WIND       PRES   REMARKS
BROWNSVILLE    FAIR      78  75  90 CALM      30.01S
PORT ISABEL    FAIR      80  73  79 SE7       30.00R
*SOUTH PADRE   NOT AVBL
HARLINGEN      CLEAR     76  74  93 SE6       30.00S
*HEBBRONVILLE  PTCLDY    77  70  78 SE7       30.03S
MCALLEN        PTCLDY    81  76  84 SE8       30.00F
*WESLACO       NOT AVBL
FALFURRIAS       N/A     78  72  81 SE5       30.00F
EDINBURG       FAIR      79  73  83 SE6       30.00F
*ZAPATA        FAIR      82  69  63 SE7       29.98F
$$

TXZ213>215-236>238-242>244-246-247-251-254-255-250600-
CMAN STATIONS

STATION/POSITION TIME  TEMP    WIND        PRES    WAVE
                       AIR SEA DIR/SP/G            HT/PER
                 (UTC) (F)     (DEG/KT/KT) (MB)    (FT/S)
SABINE PASS      0430   80 87  130/  5/  6 1018.4
SEA RIM ST PARK  0400   80     160/  7/  8 1017.1
NORTH JETTY/GLS  0430   80 83  140/  9/ 11 1016.2
EAGLE POINT      0430   80 83  160/  9/ 10 1016.5
MORGANS POINT    0430   80 83  150/  3/  9 1016.7
PORT O`CONNOR    0430   81 84  140/  8/ 10 1016.1
PORT ARANSAS     0400   80 83  120/ 10/ 11 1016.1
MALAQUITE BEACH  0424   81 85  100/ 11/ 12 1015.8
BAFFIN BAY       0424   80 87  110/  9/ 11 1016.4
PORT ISABEL      0424   80 84  130/ 10/ 12 1015.9
$$




USA.gov is the U.S. government's official web portal to all federal, state and local government web resources and services.